Weather History for Prestwick, United Kingdom

Change the Weather History Date:

Thursday, November 24, 2011

  Actual Average Record
Temperature  
Mean Temperature 52 °F -  
Max Temperature 55 °F 45 °F 57 °F (2001)
Min Temperature 48 °F 35 °F 24 °F (2010)
Degree Days  
Heating Degree Days 14    
Growing Degree Days 2 (Base 50)    
Moisture  
Dew Point 48 °F    
Average Humidity 86    
Maximum Humidity 94    
Minimum Humidity 71    
Precipitation  
Precipitation 0.00 in - - ()
Sea Level Pressure  
Sea Level Pressure 29.87 in    
Wind  
Wind Speed 15 mph ()    
Max Wind Speed 31 mph    
Max Gust Speed 50 mph    
Visibility 5.6 miles    
Events Rain    
Averages and records for this station are not official NWS values.
T = Trace of Precipitation, MM = Missing Value Source: Averaged Metar Reports

Daily Weather History Graph

Daily Weather History Graph

Search for Another Location

Airport:

Trip Planner

Search our weather history database for the weather conditions in past years. The results will help you decide how hot, cold, wet, or windy it might be!

Date:

Astronomy

Nov. 24, 2011 Rise Set
Actual Time 8:09 AM GMT 4:00 PM GMT
Civil Twilight 7:26 AM GMT 4:43 PM GMT
Nautical Twilight 6:39 AM GMT 5:29 PM GMT
Astronomical Twilight 5:55 AM GMT 6:13 PM GMT
Moon 7:11 AM GMT (11/24) 3:14 PM GMT (11/24)
Length of Visible Light 9h 17m
Length of Day
7h 50m
Waning Crescent, 1% of the Moon is Illuminated
Nov 24
Waning Crescent
Nov 25
New
Dec 2
First Quarter
Dec 10
Full
Dec 18
Last Quarter

Hourly Weather History & Observations

Time (GMT) Temp. Dew Point Humidity Pressure Visibility Wind Dir Wind Speed Gust Speed Precip Events Conditions
12:50 AM 48.2 °F 46.4 °F 93% 30.09 in 3.7 mi SE 3.5 mph - N/A   Mostly Cloudy
1:50 AM 48.2 °F 46.4 °F 93% 30.06 in 3.7 mi ESE 3.5 mph - N/A   Mostly Cloudy
2:50 AM 48.2 °F 46.4 °F 93% 30.06 in 5.6 mi East 2.3 mph - N/A   Mostly Cloudy
3:50 AM 48.2 °F 46.4 °F 93% 30.04 in 5.6 mi ESE 3.5 mph - N/A   Mostly Cloudy
4:50 AM 50.0 °F 48.2 °F 94% 30.04 in 5.6 mi Variable 3.5 mph - N/A Rain Light Rain
5:50 AM 53.6 °F 51.8 °F 94% 30.01 in 5.6 mi South 12.7 mph - N/A Rain Rain Showers
6:20 AM 53.6 °F 51.8 °F 94% 30.01 in 5.6 mi South 15.0 mph - N/A Rain Rain Showers
6:50 AM 53.6 °F 51.8 °F 94% 30.01 in 5.6 mi South 15.0 mph - N/A   Light Drizzle
7:20 AM 55.4 °F 51.8 °F 88% 30.01 in 5.6 mi South 15.0 mph - N/A   Mostly Cloudy
7:50 AM 53.6 °F 51.8 °F 94% 30.01 in 5.6 mi South 15.0 mph - N/A Rain Light Rain
8:20 AM 53.6 °F 51.8 °F 94% 30.01 in 6.2 mi South 17.3 mph - N/A Rain Light Rain
8:50 AM 55.4 °F 50.0 °F 82% 29.98 in 6.2 mi South 20.7 mph - N/A   Mostly Cloudy
9:20 AM 53.6 °F 50.0 °F 88% 29.98 in 6.2 mi South 18.4 mph - N/A   Scattered Clouds
9:50 AM 53.6 °F 50.0 °F 88% 29.98 in 6.2 mi South 13.8 mph - N/A   Scattered Clouds
10:20 AM 53.6 °F 48.2 °F 82% 29.98 in 6.2 mi South 23.0 mph - N/A   Scattered Clouds
10:50 AM 53.6 °F 48.2 °F 82% 29.95 in 6.2 mi South 20.7 mph - N/A   Scattered Clouds
11:20 AM 53.6 °F 48.2 °F 82% 29.95 in 6.2 mi South 21.9 mph - N/A   Scattered Clouds
11:50 AM 53.6 °F 48.2 °F 82% 29.92 in 6.2 mi South 20.7 mph 33.4 mph N/A   Scattered Clouds
12:20 PM 53.6 °F 48.2 °F 82% 29.89 in 6.2 mi South 25.3 mph - N/A   Scattered Clouds
12:50 PM 53.6 °F 48.2 °F 82% 29.89 in 6.2 mi South 24.2 mph - N/A   Scattered Clouds
1:20 PM 53.6 °F 48.2 °F 82% 29.86 in 6.2 mi South 27.6 mph 41.4 mph N/A   Scattered Clouds
1:50 PM 53.6 °F 48.2 °F 82% 29.83 in 6.2 mi South 31.1 mph - N/A   Scattered Clouds
2:20 PM 53.6 °F 46.4 °F 77% 29.83 in 6.2 mi South 27.6 mph 40.3 mph N/A   Scattered Clouds
2:50 PM 53.6 °F 46.4 °F 77% 29.83 in 6.2 mi South 28.8 mph 49.5 mph N/A   Scattered Clouds
3:20 PM 53.6 °F 46.4 °F 77% 29.80 in 6.2 mi South 27.6 mph - N/A   Scattered Clouds
3:50 PM 53.6 °F 48.2 °F 82% 29.80 in 6.2 mi South 28.8 mph 40.3 mph N/A Rain Light Rain
4:20 PM 51.8 °F 48.2 °F 88% 29.77 in 4.3 mi South 25.3 mph - N/A Rain Light Rain
4:50 PM 51.8 °F 48.2 °F 88% 29.77 in 5.0 mi South 26.5 mph - N/A Rain Light Rain
5:20 PM 51.8 °F 48.2 °F 88% 29.74 in 5.0 mi South 28.8 mph 41.4 mph N/A Rain Light Rain
5:50 PM 51.8 °F 48.2 °F 88% 29.74 in 5.0 mi South 28.8 mph - N/A Rain Light Rain
6:20 PM 51.8 °F 48.2 °F 88% 29.71 in 5.0 mi South 27.6 mph - N/A Rain Light Rain
6:50 PM 53.6 °F 50.0 °F 88% 29.71 in 5.0 mi South 25.3 mph 39.1 mph N/A Rain Rain
7:20 PM 53.6 °F 50.0 °F 88% 29.71 in 5.0 mi SSW 26.5 mph - N/A Rain Rain
7:50 PM 53.6 °F 50.0 °F 88% 29.71 in 5.0 mi SSW 23.0 mph - N/A Rain Rain
8:20 PM 51.8 °F 50.0 °F 94% 29.68 in 5.0 mi SSW 21.9 mph - N/A Rain Rain
8:50 PM 50.0 °F 46.4 °F 87% 29.74 in 5.0 mi SW 19.6 mph - N/A Rain Light Rain
9:20 PM 48.2 °F 42.8 °F 82% 29.74 in 5.6 mi West 23.0 mph - N/A Rain Light Rain
9:50 PM 48.2 °F 42.8 °F 82% 29.77 in 5.6 mi West 21.9 mph - N/A Rain Rain
10:20 PM 48.2 °F 42.8 °F 82% 29.74 in 5.6 mi SW 13.8 mph - N/A Rain Light Rain
10:50 PM 48.2 °F 41.0 °F 76% 29.74 in 5.6 mi WSW 17.3 mph - N/A Rain Light Rain
11:20 PM 50.0 °F 41.0 °F 71% 29.77 in 5.6 mi WSW 19.6 mph 32.2 mph N/A Rain Light Rain Showers
11:50 PM 50.0 °F 42.8 °F 76% 29.77 in 5.6 mi WSW 19.6 mph 31.1 mph N/A Rain Light Rain Showers